• In Germany
  • List of Countries
  • For 7 days
  • Water Temperature
  • Satellite Maps
  • Weather Map
  • Weather Widgets
  • user-avatar
    Login

    Hourly Weather Shusha

    Today, 29 March, Wednesday

    Time Temperature Precipitation Wind Pressure Humidity
    00:00 +2°C° 0 mm 1 mps 657 mmHg 78%
    01:00 +2°C° 0 mm 1 mps 657 mmHg 79%
    02:00 +1°C° 0 mm 1 mps 657 mmHg 80%
    03:00 +1°C° 0 mm 1 mps 657 mmHg 81%
    04:00 +1°C° 0 mm 1 mps 657 mmHg 81%
    05:00 +1°C° 0 mm 1 mps 657 mmHg 81%
    06:00 +1°C° 0 mm 1 mps 657 mmHg 80%
    07:00 +3°C° 0 mm 1 mps 658 mmHg 70%
    08:00 +5°C° 0 mm 2 mps 659 mmHg 59%
    09:00 +8°C° 0 mm 2 mps 660 mmHg 48%
    10:00 +9°C° 0 mm 2 mps 660 mmHg 45%
    11:00 +10°C° 0 mm 2 mps 660 mmHg 42%
    12:00 +13°C° 0 mm 2 mps 660 mmHg 39%
    13:00 +12°C° 0 mm 3 mps 660 mmHg 39%
    14:00 +12°C° 0 mm 3 mps 660 mmHg 39%
    15:00 +12°C° 0 mm 3 mps 660 mmHg 39%
    16:00 +10°C° 0 mm 2 mps 660 mmHg 47%
    17:00 +8°C° 0 mm 2 mps 660 mmHg 54%
    18:00 +7°C° 0 mm 1 mps 660 mmHg 62%
    19:00 +6°C° 0 mm 1 mps 660 mmHg 67%
    20:00 +5°C° 0 mm 1 mps 660 mmHg 72%
    21:00 +3°C° 0 mm 1 mps 661 mmHg 77%
    22:00 +3°C° 0 mm 1 mps 661 mmHg 79%
    23:00 +2°C° 0 mm 1 mps 661 mmHg 82%

    Tomorrow, 30 March, Thursday

    Time Temperature Precipitation Wind Pressure Humidity
    00:00 +2°C° 0 mm 1 mps 661 mmHg 84%
    01:00 +2°C° 0 mm 1 mps 661 mmHg 86%
    02:00 +1°C° 0 mm 1 mps 661 mmHg 87%
    03:00 +1°C° 0 mm 1 mps 661 mmHg 89%
    04:00 +1°C° 0 mm 1 mps 661 mmHg 89%
    05:00 0°C° 0 mm 1 mps 661 mmHg 89%
    06:00 0°C° 0 mm 1 mps 661 mmHg 89%
    07:00 +3°C° 0 mm 1 mps 662 mmHg 79%
    08:00 +5°C° 0 mm 1 mps 662 mmHg 69%
    09:00 +8°C° 0 mm 1 mps 663 mmHg 59%
    10:00 +8°C° 0 mm 2 mps 663 mmHg 55%
    11:00 +9°C° 0 mm 2 mps 662 mmHg 51%
    12:00 +12°C° 0 mm 2 mps 662 mmHg 47%
    13:00 +12°C° 0 mm 2 mps 662 mmHg 47%
    14:00 +12°C° 0 mm 2 mps 661 mmHg 48%
    15:00 +12°C° 0 mm 2 mps 660 mmHg 48%
    16:00 +10°C° 0 mm 2 mps 660 mmHg 57%
    17:00 +9°C° 0 mm 1 mps 659 mmHg 66%
    18:00 +7°C° 0 mm 1 mps 658 mmHg 75%
    19:00 +6°C° 0 mm 1 mps 658 mmHg 76%
    20:00 +5°C° 0 mm 1 mps 658 mmHg 78%
    21:00 +4°C° 0 mm 1 mps 658 mmHg 79%
    22:00 +4°C° 0 mm 1 mps 658 mmHg 77%
    23:00 +4°C° 0 mm 1 mps 658 mmHg 75%

    Day after tomorrow, 31 March, Friday

    Time Temperature Precipitation Wind Pressure Humidity
    00:00 +3°C° 0 mm 2 mps 658 mmHg 73%
    01:00 +3°C° 0 mm 2 mps 658 mmHg 72%
    02:00 +3°C° 0 mm 2 mps 658 mmHg 70%
    03:00 +3°C° 0 mm 2 mps 658 mmHg 69%
    04:00 +2°C° 0 mm 2 mps 658 mmHg 68%
    05:00 +3°C° 0 mm 1 mps 658 mmHg 67%
    06:00 +3°C° 0 mm 1 mps 658 mmHg 66%
    07:00 +6°C° 0 mm 1 mps 659 mmHg 59%
    08:00 +9°C° 0 mm 1 mps 660 mmHg 51%
    09:00 +12°C° 0 mm 1 mps 661 mmHg 44%
    10:00 +12°C° 0 mm 2 mps 661 mmHg 42%
    11:00 +13°C° 0 mm 2 mps 661 mmHg 41%
    12:00 +13°C° 0 mm 3 mps 661 mmHg 40%
    13:00 +13°C° 0 mm 3 mps 660 mmHg 43%
    14:00 +12°C° 0 mm 4 mps 660 mmHg 45%
    15:00 +12°C° 0 mm 4 mps 660 mmHg 47%
    16:00 +10°C° 0.2 mm 4 mps 660 mmHg 57%
    17:00 +8°C° 0.2 mm 4 mps 659 mmHg 66%
    18:00 +6°C° 0.2 mm 4 mps 659 mmHg 75%
    19:00 +5°C° 0.2 mm 4 mps 660 mmHg 78%
    20:00 +4°C° 0.2 mm 4 mps 660 mmHg 82%
    21:00 +3°C° 0.2 mm 4 mps 660 mmHg 85%
    22:00 +1°C° 1.1 mm 4 mps 660 mmHg 86%
    23:00 0°C° 1.1 mm 4 mps 660 mmHg 88%

    1 April, Saturday

    Time Temperature Precipitation Wind Pressure Humidity
    00:00 0°C° 1.1 mm 4 mps 660 mmHg 89%
    01:00 -1°C° 0.3 mm 4 mps 660 mmHg 89%
    02:00 -1°C° 0.3 mm 3 mps 660 mmHg 90%
    03:00 -1°C° 0.3 mm 3 mps 660 mmHg 90%
    04:00 -1°C° 0.3 mm 3 mps 660 mmHg 90%
    05:00 -2°C° 0.3 mm 3 mps 660 mmHg 90%
    06:00 -2°C° 0.3 mm 3 mps 661 mmHg 90%
    07:00 -2°C° 0.5 mm 3 mps 661 mmHg 89%
    08:00 -1°C° 0.5 mm 3 mps 661 mmHg 88%
    09:00 -1°C° 0.5 mm 3 mps 661 mmHg 87%
    10:00 0°C° 0.1 mm 3 mps 661 mmHg 85%
    11:00 0°C° 0.1 mm 3 mps 661 mmHg 83%
    12:00 +1°C° 0.1 mm 3 mps 661 mmHg 81%
    13:00 +2°C° 0 mm 3 mps 660 mmHg 80%
    14:00 +2°C° 0 mm 3 mps 660 mmHg 79%
    15:00 +3°C° 0 mm 3 mps 660 mmHg 78%
    16:00 +3°C° 0 mm 2 mps 659 mmHg 81%
    17:00 +2°C° 0 mm 2 mps 659 mmHg 85%
    18:00 +1°C° 0 mm 2 mps 659 mmHg 88%
    19:00 +2°C° 0 mm 1 mps 659 mmHg 90%
    20:00 +1°C° 0 mm 1 mps 659 mmHg 92%
    21:00 +1°C° 0 mm 1 mps 659 mmHg 94%
    22:00 +1°C° 0.1 mm 1 mps 659 mmHg 93%
    23:00 +1°C° 0.1 mm 1 mps 658 mmHg 93%

    2 April, Sunday

    Time Temperature Precipitation Wind Pressure Humidity
    00:00 0°C° 0.1 mm 1 mps 658 mmHg 93%
    01:00 0°C° 0.4 mm 0 mps 658 mmHg 93%
    02:00 0°C° 0.4 mm 0 mps 658 mmHg 92%
    03:00 0°C° 0.4 mm 0 mps 658 mmHg 92%
    04:00 0°C° 0.3 mm 0 mps 658 mmHg 92%
    05:00 -1°C° 0.3 mm 0 mps 658 mmHg 93%
    06:00 -1°C° 0.3 mm 0 mps 658 mmHg 93%
    07:00 +1°C° 0.3 mm 1 mps 659 mmHg 90%
    08:00 +2°C° 0.3 mm 1 mps 659 mmHg 86%
    09:00 +3°C° 0.3 mm 1 mps 660 mmHg 82%
    10:00 +4°C° 0.3 mm 1 mps 660 mmHg 80%
    11:00 +4°C° 0.3 mm 2 mps 660 mmHg 78%
    12:00 +5°C° 0.3 mm 2 mps 660 mmHg 77%
    13:00 +5°C° 0.3 mm 2 mps 660 mmHg 77%
    14:00 +5°C° 0.3 mm 2 mps 660 mmHg 77%
    15:00 +5°C° 0.3 mm 2 mps 660 mmHg 77%
    16:00 +4°C° 0.3 mm 2 mps 660 mmHg 81%
    17:00 +4°C° 0.3 mm 2 mps 660 mmHg 85%
    18:00 +3°C° 0.3 mm 2 mps 660 mmHg 89%
    19:00 +3°C° 0.3 mm 1 mps 660 mmHg 90%
    20:00 +3°C° 0.3 mm 1 mps 661 mmHg 91%
    21:00 +2°C° 0.3 mm 1 mps 661 mmHg 93%
    22:00 +2°C° 0.2 mm 1 mps 661 mmHg 93%
    23:00 +2°C° 0.2 mm 1 mps 661 mmHg 94%

    3 April, Monday

    Time Temperature Precipitation Wind Pressure Humidity
    00:00 +1°C° 0.2 mm 1 mps 661 mmHg 94%
    01:00 +1°C° 0.1 mm 1 mps 661 mmHg 94%
    02:00 0°C° 0.1 mm 0 mps 661 mmHg 94%
    03:00 -1°C° 0.1 mm 0 mps 661 mmHg 94%
    04:00 -1°C° 0.1 mm 0 mps 661 mmHg 94%
    05:00 -1°C° 0.1 mm 0 mps 662 mmHg 94%
    06:00 -1°C° 0.1 mm 0 mps 662 mmHg 94%
    07:00 +2°C° 0.1 mm 1 mps 662 mmHg 89%
    08:00 +3°C° 0.1 mm 1 mps 663 mmHg 83%
    09:00 +5°C° 0.1 mm 1 mps 663 mmHg 78%
    10:00 +4°C° 0.1 mm 2 mps 663 mmHg 74%
    11:00 +5°C° 0.1 mm 2 mps 663 mmHg 71%
    12:00 +6°C° 0.1 mm 2 mps 663 mmHg 68%
    13:00 +6°C° 0 mm 2 mps 663 mmHg 68%
    14:00 +7°C° 0 mm 2 mps 663 mmHg 68%
    15:00 +7°C° 0 mm 2 mps 663 mmHg 68%
    16:00 +6°C° 0 mm 2 mps 662 mmHg 73%
    17:00 +5°C° 0 mm 2 mps 662 mmHg 78%
    18:00 +5°C° 0 mm 1 mps 662 mmHg 83%
    19:00 +3°C° 0 mm 1 mps 662 mmHg 86%
    20:00 +2°C° 0 mm 1 mps 662 mmHg 89%
    21:00 +1°C° 0 mm 1 mps 662 mmHg 91%
    22:00 0°C° 0 mm 1 mps 662 mmHg 90%
    23:00 0°C° 0 mm 1 mps 662 mmHg 89%
    Show more